User: anonymous   Login
Location: Pensacola
(30.4142°N, 87.2155°W)
Time: 05:31:14
(UTC-05:00)
Language:

TIGRISAT - Orbit

View from above orbital plane
View from above orbital plane
View from above satellite
View from above satellite

Ground track
Ground track

The orbit data is extracted from the following two-line orbital elements,

1 40043U 14033AK  23155.91868554  .00001948  00000-0  27897-3 0  9992
2 40043  97.6645 331.5721 0059242  93.5728 267.2261 14.76467953481605
Epoch (UTC): 04 June 2023 22:02:54
Eccentricity: 0.0059242
inclination: 97.6645°
perigee height: 599 km
apogee height: 682 km
right ascension of ascending node: 331.5721°
argument of perigee: 93.5728°
revolutions per day: 14.76467953
mean anomaly at epoch: 267.2261°
orbit number at epoch: 48160

The dashed part of the orbit path shows where the satellite is in the earth's shadow,  

DLR